Location: Skalnate Pleso
(49.1889°N, 20.2450°E)
Time: 08:48:42
(UTC+01:00)

Cosmos 2360 Rocket - Pass Details

Date: 19 November 2019
Orbit: 832 x 847 km, 71.0° (Epoch: 05 December)

Event Time Altitude Azimuth Distance (km) Brightness Sun altitude
Exits shadow 03:38:04 21° 6° (N) 1,802 4.0 -31.8°
Maximum altitude 03:40:33 29° 46° (NE) 1,501 3.8 -31.4°
Drops below altitude 10° 03:45:28 10° 106° (ESE) 2,470 5.4 -30.6°
Sets 03:48:13 0° 117° (ESE) 3,400 6.2 -30.1°
